Regional Weather Roundup
Issued by NWS

Home | Current Version | Previous Version | Graphics & Text | Print | Product List | Glossary On
Versions: 1 2 3 4 5 6 7 8 9 10 11 12 13 14 15 16 17 18 19 20 21 22 23 24 25 26 27 28 29 30 31 32 33 34 35 36 37 38 39 40 41 42 43 44 45 46 47 48 49 50
000
ASUS43 KMKX 221510
RWRWI

WISCONSIN REGIONAL WEATHER ROUNDUP
NATIONAL WEATHER SERVICE MILWAUKEE/SULLIVAN WI
900 AM CST THU FEB 22 2018

NOTE: "FAIR" INDICATES FEW OR NO CLOUDS BELOW 12,000 FEET WITH NO
SIGNIFICANT WEATHER AND/OR OBSTRUCTIONS TO VISIBILITY.

WIZ001-002-006>008-014>016-023>028-221600-
NORTHWEST WISCONSIN

CITY           SKY/WX    TMP DP  RH WIND       PRES   REMARKS
SUPERIOR ARPT  FAIR      -1  -5  85 CALM      30.64S
ASHLAND        FAIR       3  -1  83 CALM      30.64F
HAYWARD        FAIR      10   3  73 CALM      30.59F
SIREN          FAIR       2  -3  79 NE3       30.60S
CUMBERLAND     FAIR       9   3  78 SE6       30.57F WCI  -1
RICE LAKE      FAIR       9   6  88 E3        30.61F
CHETEK         FAIR      10   4  75 SE5       30.61F WCI   2
LADYSMITH      FAIR      11   4  74 E5        30.61F WCI   3
EAU CLAIRE     CLOUDY    12   5  73 NE5       30.60F WCI   4
MENOMONIE      PTSUNNY   12   5  73 E3        30.61F
NEW RICHMOND   FAIR      14   4  66 SE7       30.59R WCI   3
OSCEOLA        CLOUDY    11   4  71 CALM      30.63R
$$

WIZ003>005-009-010-017-018-221600-
NORTH CENTRAL WISCONSIN

CITY           SKY/WX    TMP DP  RH WIND       PRES   REMARKS
MANITOWISH WTR FAIR       2  -1  89 CALM      30.59F
ARBOR VITAE    FAIR      11   7  82 SE3       30.58F
WOODRUFF       FAIR      11   7  82 SE3       30.58F
RHINELANDER    PTSUNNY   13   7  77 CALM      30.59F
EAGLE RIVER    FAIR       8   2  78 CALM      30.59F
LAND O LAKES   FAIR       6   2  81 CALM      30.61F
PHILLIPS       FAIR       8   3  80 CALM      30.58F
TOMAHAWK       PTSUNNY   12   7  79 CALM      30.60F
MEDFORD        PTSUNNY   13   5  70 E7        30.58F WCI   2
MERRILL        PTSUNNY   12   6  77 CALM      30.61F
$$

WIZ029-030-035-036-043>047-221600-
CENTRAL WISCONSIN

CITY           SKY/WX    TMP DP  RH WIND       PRES   REMARKS
WAUSAU         CLOUDY    15   8  73 CALM      30.60S
MOSINEE        PTSUNNY   18  10  73 E6        30.62R WCI   9
MARSHFIELD     CLOUDY    15   7  70 E6        30.59R WCI   6
STEVENS POINT  FAIR      17   9  70 E7        30.62S WCI   8
WAUPACA        PTSUNNY   23  12  63 NE5       30.64S WCI  17
WAUTOMA        CLOUDY    21  13  71 NE5       30.64R WCI  15
WISC RAPIDS    CLOUDY    20  10  65 E8        30.62F WCI  10
CAMP DOUGLAS   CLOUDY    21  12  68 E8        30.61R WCI  12
$$

WIZ011>013-019>022-031-037>040-048>050-221600-
NORTHEAST WISCONSIN

CITY           SKY/WX    TMP DP  RH WIND       PRES   REMARKS
ANTIGO         PTSUNNY   19   9  65 E6        30.60S WCI  10
SHAWANO        FAIR      22  12  65 NE7       30.65F WCI  13
OCONTO         FAIR      22  12  65 N5        30.68F WCI  15
STURGEON BAY   PTSUNNY   22  16  78 N7        30.67F WCI  13
GREEN BAY      PTSUNNY   22  12  65 NE12      30.66F WCI  10
MANITOWOC      CLOUDY    25  20  81 NE3       30.64F
APPLETON       CLOUDY    21  10  63 NE9       30.62S WCI  11
CLINTONVILLE   CLOUDY    20  10  65 NE7       30.65F WCI  11
OSHKOSH        CLOUDY    22  15  75 N10       30.62F WCI  11
$$

WIZ032>034-041-042-053>061-221600-
SOUTHWEST WISCONSIN

CITY           SKY/WX    TMP DP  RH WIND       PRES   REMARKS
LA CROSSE      CLOUDY    24  16  71 VRB3      30.61F
SPARTA         CLOUDY    21  15  77 E8        30.62S WCI  12
VIROQUA        CLOUDY    22  18  84 E6        30.55F WCI  15
BOSCOBEL       CLOUDY    27  16  63 NE7       30.61S WCI  19
PRAIRIE DU CHI CLOUDY    26  13  58 NE6       30.57F WCI  20
PLATTEVILLE    FAIR      26  20  76 E9        30.57R WCI  17
$$

WIZ056-057-062-063-064-067-068-221600-
SOUTH CENTRAL WISCONSIN

CITY           SKY/WX    TMP DP  RH WIND       PRES   REMARKS
REEDSBURG      CLOUDY    22  14  71 E5        30.61R WCI  15
BARABOO/DELLS  CLOUDY    22  14  71 E6        30.60F WCI  14
LONE ROCK      CLOUDY    26  17  68 NE7       30.61R WCI  18
MINERAL POINT  PTSUNNY   28  21  74 E12G17    30.55R WCI  18
MADISON        CLOUDY    25  18  74 E10       30.59F WCI  15
MIDDLETON      CLOUDY    26  19  75 E7        30.60R WCI  19
WATERTOWN      CLOUDY    27  22  83 E10G17    30.58F WCI  17
MONROE         CLOUDY    27  21  80 NE14      30.55S WCI  15
JANESVILLE     PTSUNNY   28  23  80 NE7       30.56F WCI  21
$$

WIZ051-052-058>065-066-070>072-221600-
SOUTHEAST WISCONSIN

CITY           SKY/WX    TMP DP  RH WIND       PRES   REMARKS
MILWAUKEE      PTSUNNY   33  26  75 NE12      30.61S WCI  24
WAUKESHA       CLOUDY    27  21  80 NE8       30.61F WCI  18
MILWAUKEE/TIMM CLOUDY    30  18  59 NE10      30.62F WCI  21
RACINE         CLOUDY    34  27  75 NE16      30.60F WCI  24
BURLINGTON     FAIR      31  22  69 NE9       30.58F WCI  23
KENOSHA        PTSUNNY   34  27  75 NE14      30.58F WCI  25
FOND DU LAC    CLOUDY    24  16  71 NE7       30.60F WCI  16
SHEBOYGAN      FAIR      28  23  81 NE10      30.63F WCI  19
WEST BEND      CLOUDY    28  25  86 E8        30.61F WCI  20
JUNEAU         PTSUNNY   25  19  77 NE9       30.60F WCI  15
$$

LSZ147-162-221600-
LAKE SUPERIOR

STATION/POSITION TIME  TEMP    WIND        PRES    WAVE
                       AIR SEA DIR/SP/G            HT/PER
                 (UTC) (F)     (DEG/KT/KT) (MB)    (FT/S)
DEVILS ISLAND    1500   14     210/  6/  7 1039.2F
SAXON HARBOR     1430    3     190/  4/  7 1037.6F
$$

LMZ867-665-643>646-221600-
LAKE MICHIGAN

STATION/POSITION TIME  TEMP    WIND        PRES    WAVE
                       AIR SEA DIR/SP/G            HT/PER
                 (UTC) (F)     (DEG/KT/KT) (MB)    (FT/S)
NORTHPORT PIER   1440   21                 1038.6F
KEWAUNEE LAKESHO 1442   25      10/  5/ 10 1037.3F
SHEBOYGAN LAKESH 1500   30      40/ 13/ 14 1038.3F
PORT WASHINGTON  1430   28      10/  4/ 10 1038.6R
MILWAUKEE LAKESH 1450   31      40/ 15/ 16   N/A
KENOSHA   LAKESH 1500   32      40/ 10/ 13 1035.9
$$

TC  - TEMPERATURE IN CELSIUS
VSB - VISIBILITY IN STATUTE MILES
WCI - WIND CHILL INDEX
HX  - HEAT INDEX





USA.gov is the U.S. government's official web portal to all federal, state and local government web resources and services.